Year,Month,Day,Hour,Minute,Value (Times are PST for temperature in C)
2011,04,23,00,00,2.80
2011,04,23,00,01,2.80
2011,04,23,00,02,2.70
2011,04,23,00,03,2.70
2011,04,23,00,04,2.70
2011,04,23,00,05,2.70
2011,04,23,00,06,2.70
2011,04,23,00,07,2.70
2011,04,23,00,08,2.70
2011,04,23,00,09,2.70
2011,04,23,00,10,2.70
2011,04,23,00,11,2.70
2011,04,23,00,12,2.70
2011,04,23,00,13,2.70
2011,04,23,00,14,2.70
2011,04,23,00,15,2.70
2011,04,23,00,16,2.70
2011,04,23,00,17,2.70
2011,04,23,00,18,2.60
2011,04,23,00,19,2.60
2011,04,23,00,20,2.60
2011,04,23,00,21,2.60
2011,04,23,00,22,2.60
2011,04,23,00,23,2.60
2011,04,23,00,24,2.60
2011,04,23,00,25,2.60
2011,04,23,00,26,2.60
2011,04,23,00,27,2.60
2011,04,23,00,28,2.50
2011,04,23,00,29,2.50
2011,04,23,00,30,2.50
2011,04,23,00,31,2.50
2011,04,23,00,32,2.40
2011,04,23,00,33,2.40
2011,04,23,00,34,2.40
2011,04,23,00,35,2.40
2011,04,23,00,36,2.40
2011,04,23,00,37,2.30
2011,04,23,00,38,2.30
2011,04,23,00,39,2.30
2011,04,23,00,40,2.30
2011,04,23,00,41,2.30
2011,04,23,00,42,2.30
2011,04,23,00,43,2.30
2011,04,23,00,44,2.30
2011,04,23,00,45,2.30
2011,04,23,00,46,2.30
2011,04,23,00,47,2.30
2011,04,23,00,48,2.20
2011,04,23,00,49,2.20
2011,04,23,00,50,2.20
2011,04,23,00,51,2.20
2011,04,23,00,52,2.20
2011,04,23,00,53,2.20
2011,04,23,00,54,2.20
2011,04,23,00,55,2.20
2011,04,23,00,56,2.20
2011,04,23,00,57,2.10
2011,04,23,00,58,2.10
2011,04,23,00,59,2.10
2011,04,23,01,00,2.10
2011,04,23,01,01,2.10
2011,04,23,01,02,2.10
2011,04,23,01,03,2.10
2011,04,23,01,04,2.10
2011,04,23,01,05,2.10
2011,04,23,01,06,2.10
2011,04,23,01,07,2.10
2011,04,23,01,08,2.10
2011,04,23,01,09,2.10
2011,04,23,01,10,2.00
2011,04,23,01,11,2.00
2011,04,23,01,12,2.00
2011,04,23,01,13,2.00
2011,04,23,01,14,1.90
2011,04,23,01,15,1.90
2011,04,23,01,16,1.90
2011,04,23,01,17,1.90
2011,04,23,01,18,1.90
2011,04,23,01,19,1.90
2011,04,23,01,20,1.80
2011,04,23,01,21,1.80
2011,04,23,01,22,1.80
2011,04,23,01,23,1.80
2011,04,23,01,24,1.80
2011,04,23,01,25,1.80
2011,04,23,01,26,1.80
2011,04,23,01,27,1.80
2011,04,23,01,28,1.80
2011,04,23,01,29,1.70
2011,04,23,01,30,1.70
2011,04,23,01,31,1.70
2011,04,23,01,32,1.70
2011,04,23,01,33,1.70
2011,04,23,01,34,1.70
2011,04,23,01,35,1.60
2011,04,23,01,36,1.60
2011,04,23,01,37,1.60
2011,04,23,01,38,1.60
2011,04,23,01,39,1.60
2011,04,23,01,40,1.60
2011,04,23,01,41,1.60
2011,04,23,01,42,1.50
2011,04,23,01,43,1.50
2011,04,23,01,44,1.50
2011,04,23,01,45,1.50
2011,04,23,01,46,1.50
2011,04,23,01,47,1.50
2011,04,23,01,48,1.50
2011,04,23,01,49,1.50
2011,04,23,01,50,1.50
2011,04,23,01,51,1.50
2011,04,23,01,52,1.50
2011,04,23,01,53,1.50
2011,04,23,01,54,1.50
2011,04,23,01,55,1.40
2011,04,23,01,56,1.40
2011,04,23,01,57,1.40
2011,04,23,01,58,1.40
2011,04,23,01,59,1.40
2011,04,23,02,00,1.40
2011,04,23,02,01,1.40
2011,04,23,02,02,1.40
2011,04,23,02,03,1.30
2011,04,23,02,04,1.30
2011,04,23,02,05,1.30
2011,04,23,02,06,1.30
2011,04,23,02,07,1.30
2011,04,23,02,08,1.30
2011,04,23,02,09,1.30
2011,04,23,02,10,1.30
2011,04,23,02,11,1.30
2011,04,23,02,12,1.30
2011,04,23,02,13,1.30
2011,04,23,02,14,1.30
2011,04,23,02,15,1.30
2011,04,23,02,16,1.30
2011,04,23,02,17,1.30
2011,04,23,02,18,1.30
2011,04,23,02,19,1.30
2011,04,23,02,20,1.30
2011,04,23,02,21,1.30
2011,04,23,02,22,1.30
2011,04,23,02,23,1.30
2011,04,23,02,24,1.30
2011,04,23,02,25,1.30
2011,04,23,02,26,1.30
2011,04,23,02,27,1.30
2011,04,23,02,28,1.30
2011,04,23,02,29,1.20
2011,04,23,02,30,1.20
2011,04,23,02,31,1.20
2011,04,23,02,32,1.20
2011,04,23,02,33,1.20
2011,04,23,02,34,1.20
2011,04,23,02,35,1.20
2011,04,23,02,36,1.20
2011,04,23,02,37,1.20
2011,04,23,02,38,1.20
2011,04,23,02,39,1.20
2011,04,23,02,40,1.20
2011,04,23,02,41,1.20
2011,04,23,02,42,1.20
2011,04,23,02,43,1.20
2011,04,23,02,44,1.20
2011,04,23,02,45,1.20
2011,04,23,02,46,1.20
2011,04,23,02,47,1.20
2011,04,23,02,48,1.20
2011,04,23,02,49,1.20
2011,04,23,02,50,1.10
2011,04,23,02,51,1.10
2011,04,23,02,52,1.10
2011,04,23,02,53,1.10
2011,04,23,02,54,1.10
2011,04,23,02,55,1.10
2011,04,23,02,56,1.10
2011,04,23,02,57,1.10
2011,04,23,02,58,1.10
2011,04,23,02,59,1.10
2011,04,23,03,00,1.20
2011,04,23,03,01,1.20
2011,04,23,03,02,1.20
2011,04,23,03,03,1.20
2011,04,23,03,04,1.20
2011,04,23,03,05,1.20
2011,04,23,03,06,1.20
2011,04,23,03,07,1.20
2011,04,23,03,08,1.20
2011,04,23,03,09,1.20
2011,04,23,03,10,1.20
2011,04,23,03,11,1.20
2011,04,23,03,12,1.20
2011,04,23,03,13,1.20
2011,04,23,03,14,1.20
2011,04,23,03,15,1.20
2011,04,23,03,16,1.20
2011,04,23,03,17,1.20
2011,04,23,03,18,1.20
2011,04,23,03,19,1.20
2011,04,23,03,20,1.20
2011,04,23,03,21,1.20
2011,04,23,03,22,1.20
2011,04,23,03,23,1.20
2011,04,23,03,24,1.20
2011,04,23,03,25,1.20
2011,04,23,03,26,1.20
2011,04,23,03,27,1.20
2011,04,23,03,28,1.10
2011,04,23,03,29,1.10
2011,04,23,03,30,1.10
2011,04,23,03,31,1.10
2011,04,23,03,32,1.10
2011,04,23,03,33,1.10
2011,04,23,03,34,1.10
2011,04,23,03,35,1.10
2011,04,23,03,36,1.10
2011,04,23,03,37,1.00
2011,04,23,03,38,1.00
2011,04,23,03,39,1.00
2011,04,23,03,40,1.00
2011,04,23,03,41,1.00
2011,04,23,03,42,0.90
2011,04,23,03,43,0.90
2011,04,23,03,44,0.90
2011,04,23,03,45,0.90
2011,04,23,03,46,0.90
2011,04,23,03,47,0.90
2011,04,23,03,48,0.90
2011,04,23,03,49,0.90
2011,04,23,03,50,0.80
2011,04,23,03,51,0.80
2011,04,23,03,52,0.80
2011,04,23,03,53,0.80
2011,04,23,03,54,0.80
2011,04,23,03,55,0.80
2011,04,23,03,56,0.80
2011,04,23,03,57,0.80
2011,04,23,03,58,0.80
2011,04,23,03,59,0.80
2011,04,23,04,00,0.80
2011,04,23,04,01,0.80
2011,04,23,04,02,0.80
2011,04,23,04,03,0.80
2011,04,23,04,04,0.80
2011,04,23,04,05,0.80
2011,04,23,04,06,0.80
2011,04,23,04,07,0.80
2011,04,23,04,08,0.80
2011,04,23,04,09,0.80
2011,04,23,04,10,0.80
2011,04,23,04,11,0.80
2011,04,23,04,12,0.80
2011,04,23,04,13,0.90
2011,04,23,04,14,0.90
2011,04,23,04,15,0.90
2011,04,23,04,16,0.90
2011,04,23,04,17,0.90
2011,04,23,04,18,0.90
2011,04,23,04,19,0.90
2011,04,23,04,20,0.90
2011,04,23,04,21,0.90
2011,04,23,04,22,0.90
2011,04,23,04,23,0.90
2011,04,23,04,24,0.90
2011,04,23,04,25,0.90
2011,04,23,04,26,0.90
2011,04,23,04,27,0.90
2011,04,23,04,28,0.90
2011,04,23,04,29,0.90
2011,04,23,04,30,0.90
2011,04,23,04,31,0.90
2011,04,23,04,32,0.90
2011,04,23,04,33,0.90
2011,04,23,04,34,0.90
2011,04,23,04,35,0.90
2011,04,23,04,36,0.90
2011,04,23,04,37,0.90
2011,04,23,04,38,0.90
2011,04,23,04,39,0.90
2011,04,23,04,40,0.90
2011,04,23,04,41,0.90
2011,04,23,04,42,0.90
2011,04,23,04,43,0.90
2011,04,23,04,44,0.90
2011,04,23,04,45,0.90
2011,04,23,04,46,0.90
2011,04,23,04,47,0.90
2011,04,23,04,48,0.90
2011,04,23,04,49,0.90
2011,04,23,04,50,0.80
2011,04,23,04,51,0.80
2011,04,23,04,52,0.80
2011,04,23,04,53,0.80
2011,04,23,04,54,0.80
2011,04,23,04,55,0.80
2011,04,23,04,56,0.80
2011,04,23,04,57,0.80
2011,04,23,04,58,0.80
2011,04,23,04,59,0.70
2011,04,23,05,00,0.70
2011,04,23,05,01,0.70
2011,04,23,05,02,0.70
2011,04,23,05,03,0.70
2011,04,23,05,04,0.70
2011,04,23,05,05,0.70
2011,04,23,05,06,0.70
2011,04,23,05,07,0.70
2011,04,23,05,08,0.70
2011,04,23,05,09,0.70
2011,04,23,05,10,0.70
2011,04,23,05,11,0.70
2011,04,23,05,12,0.70
2011,04,23,05,13,0.70
2011,04,23,05,14,0.70
2011,04,23,05,15,0.70
2011,04,23,05,16,0.70
2011,04,23,05,17,0.70
2011,04,23,05,18,0.70
2011,04,23,05,19,0.70
2011,04,23,05,20,0.70
2011,04,23,05,21,0.70
2011,04,23,05,22,0.70
2011,04,23,05,23,0.70
2011,04,23,05,24,0.70
2011,04,23,05,25,0.70
2011,04,23,05,26,0.70
2011,04,23,05,27,0.70
2011,04,23,05,28,0.70
2011,04,23,05,29,0.70
2011,04,23,05,30,0.70
2011,04,23,05,31,0.70
2011,04,23,05,32,0.70
2011,04,23,05,33,0.70
2011,04,23,05,34,0.70
2011,04,23,05,35,0.70
2011,04,23,05,36,0.70
2011,04,23,05,37,0.70
2011,04,23,05,38,0.70
2011,04,23,05,39,0.70
2011,04,23,05,40,0.70
2011,04,23,05,41,0.70
2011,04,23,05,42,0.70
2011,04,23,05,43,0.70
2011,04,23,05,44,0.70
2011,04,23,05,45,0.70
2011,04,23,05,46,0.70
2011,04,23,05,47,0.70
2011,04,23,05,48,0.70
2011,04,23,05,49,0.70
2011,04,23,05,50,0.70
2011,04,23,05,51,0.60
2011,04,23,05,52,0.60
2011,04,23,05,53,0.60
2011,04,23,05,54,0.60
2011,04,23,05,55,0.60
2011,04,23,05,56,0.60
2011,04,23,05,57,0.60
2011,04,23,05,58,0.60
2011,04,23,05,59,0.50
2011,04,23,06,00,0.50
2011,04,23,06,01,0.50
2011,04,23,06,02,0.50
2011,04,23,06,03,0.50
2011,04,23,06,04,0.60
2011,04,23,06,05,0.60
2011,04,23,06,06,0.60
2011,04,23,06,07,0.60
2011,04,23,06,08,0.60
2011,04,23,06,09,0.60
2011,04,23,06,10,0.60
2011,04,23,06,11,0.60
2011,04,23,06,12,0.60
2011,04,23,06,13,0.60
2011,04,23,06,14,0.60
2011,04,23,06,15,0.60
2011,04,23,06,16,0.60
2011,04,23,06,17,0.60
2011,04,23,06,18,0.60
2011,04,23,06,19,0.60
2011,04,23,06,20,0.60
2011,04,23,06,21,0.60
2011,04,23,06,22,0.60
2011,04,23,06,23,0.50
2011,04,23,06,24,0.60
2011,04,23,06,25,0.60
2011,04,23,06,26,0.60
2011,04,23,06,27,0.60
2011,04,23,06,28,0.60
2011,04,23,06,29,0.60
2011,04,23,06,30,0.60
2011,04,23,06,31,0.60
2011,04,23,06,32,0.60
2011,04,23,06,33,0.60
2011,04,23,06,34,0.60
2011,04,23,06,35,0.60
2011,04,23,06,36,0.60
2011,04,23,06,37,0.60
2011,04,23,06,38,0.60
2011,04,23,06,39,0.70
2011,04,23,06,40,0.70
2011,04,23,06,41,0.70
2011,04,23,06,42,0.70
2011,04,23,06,43,0.70
2011,04,23,06,44,0.70
2011,04,23,06,45,0.70
2011,04,23,06,46,0.70
2011,04,23,06,47,0.70
2011,04,23,06,48,0.70
2011,04,23,06,49,0.80
2011,04,23,06,50,0.80
2011,04,23,06,51,0.80
2011,04,23,06,52,0.80
2011,04,23,06,53,0.80
2011,04,23,06,54,0.80
2011,04,23,06,55,0.80
2011,04,23,06,56,0.80
2011,04,23,06,57,0.80
2011,04,23,06,58,0.80
2011,04,23,06,59,0.80
2011,04,23,07,00,0.80
2011,04,23,07,01,0.80
2011,04,23,07,02,0.80
2011,04,23,07,03,0.80
2011,04,23,07,04,0.80
2011,04,23,07,05,0.90
2011,04,23,07,06,0.90
2011,04,23,07,07,0.90
2011,04,23,07,08,0.90
2011,04,23,07,09,0.90
2011,04,23,07,10,0.90
2011,04,23,07,11,0.90
2011,04,23,07,12,1.00
2011,04,23,07,13,1.00
2011,04,23,07,14,1.10
2011,04,23,07,15,1.10
2011,04,23,07,16,1.10
2011,04,23,07,17,1.10
2011,04,23,07,18,1.20
2011,04,23,07,19,1.20
2011,04,23,07,20,1.20
2011,04,23,07,21,1.20
2011,04,23,07,22,1.30
2011,04,23,07,23,1.30
2011,04,23,07,24,1.30
2011,04,23,07,25,1.40
2011,04,23,07,26,1.40
2011,04,23,07,27,1.40
2011,04,23,07,28,1.50
2011,04,23,07,29,1.50
2011,04,23,07,30,1.60
2011,04,23,07,31,1.60
2011,04,23,07,32,1.60
2011,04,23,07,33,1.70
2011,04,23,07,34,1.70
2011,04,23,07,35,1.80
2011,04,23,07,36,1.80
2011,04,23,07,37,1.90
2011,04,23,07,38,1.90
2011,04,23,07,39,1.90
2011,04,23,07,40,2.00
2011,04,23,07,41,2.10
2011,04,23,07,42,2.10
2011,04,23,07,43,2.20
2011,04,23,07,44,2.20
2011,04,23,07,45,2.30
2011,04,23,07,46,2.30
2011,04,23,07,47,2.40
2011,04,23,07,48,2.50
2011,04,23,07,49,2.50
2011,04,23,07,50,2.60
2011,04,23,07,51,2.60
2011,04,23,07,52,2.70
2011,04,23,07,53,2.70
2011,04,23,07,54,2.80
2011,04,23,07,55,2.80
2011,04,23,07,56,2.90
2011,04,23,07,57,3.00
2011,04,23,07,58,3.00
2011,04,23,07,59,3.10
2011,04,23,08,00,3.10
2011,04,23,08,01,3.20
2011,04,23,08,02,3.20
2011,04,23,08,03,3.30
2011,04,23,08,04,3.40
2011,04,23,08,05,3.40
2011,04,23,08,06,3.50
2011,04,23,08,07,3.60
2011,04,23,08,08,3.60
2011,04,23,08,09,3.70
2011,04,23,08,10,3.80
2011,04,23,08,11,3.80
2011,04,23,08,12,3.90
2011,04,23,08,13,3.90
2011,04,23,08,14,4.00
2011,04,23,08,15,4.10
2011,04,23,08,16,4.10
2011,04,23,08,17,4.20
2011,04,23,08,18,4.30
2011,04,23,08,19,4.30
2011,04,23,08,20,4.40
2011,04,23,08,21,4.50
2011,04,23,08,22,4.50
2011,04,23,08,23,4.60
2011,04,23,08,24,4.70
2011,04,23,08,25,4.80
2011,04,23,08,26,4.80
2011,04,23,08,27,4.90
2011,04,23,08,28,5.00
2011,04,23,08,29,5.10
2011,04,23,08,30,5.20
2011,04,23,08,31,5.30
2011,04,23,08,32,5.40
2011,04,23,08,33,5.50
2011,04,23,08,34,5.60
2011,04,23,08,35,5.60
2011,04,23,08,36,5.70
2011,04,23,08,37,5.80
2011,04,23,08,38,5.90
2011,04,23,08,39,6.00
2011,04,23,08,40,6.10
2011,04,23,08,41,6.20
2011,04,23,08,42,6.30
2011,04,23,08,43,6.40
2011,04,23,08,44,6.50
2011,04,23,08,45,6.60
2011,04,23,08,46,6.70
2011,04,23,08,47,6.70
2011,04,23,08,48,6.80
2011,04,23,08,49,6.90
2011,04,23,08,50,7.00
2011,04,23,08,51,7.00
2011,04,23,08,52,7.10
2011,04,23,08,53,7.20
2011,04,23,08,54,7.20
2011,04,23,08,55,7.30
2011,04,23,08,56,7.40
2011,04,23,08,57,7.50
2011,04,23,08,58,7.50
2011,04,23,08,59,7.60
2011,04,23,09,00,7.70
2011,04,23,09,01,7.70
2011,04,23,09,02,7.80
2011,04,23,09,03,7.90
2011,04,23,09,04,8.00
2011,04,23,09,05,8.00
2011,04,23,09,06,8.10
2011,04,23,09,07,8.20
2011,04,23,09,08,8.30
2011,04,23,09,09,8.30
2011,04,23,09,10,8.40
2011,04,23,09,11,8.50
2011,04,23,09,12,8.60
2011,04,23,09,13,8.60
2011,04,23,09,14,8.70
2011,04,23,09,15,8.70
2011,04,23,09,16,8.80
2011,04,23,09,17,8.80
2011,04,23,09,18,8.80
2011,04,23,09,19,8.90
2011,04,23,09,20,8.90
2011,04,23,09,21,8.90
2011,04,23,09,22,8.90
2011,04,23,09,23,8.90
2011,04,23,09,24,9.00
2011,04,23,09,25,9.00
2011,04,23,09,26,9.00
2011,04,23,09,27,9.00
2011,04,23,09,28,9.10
2011,04,23,09,29,9.10
2011,04,23,09,30,9.10
2011,04,23,09,31,9.20
2011,04,23,09,32,9.20
2011,04,23,09,33,9.20
2011,04,23,09,34,9.30
2011,04,23,09,35,9.30
2011,04,23,09,36,9.40
2011,04,23,09,37,9.40
2011,04,23,09,38,9.40
2011,04,23,09,39,9.50
2011,04,23,09,40,9.50
2011,04,23,09,41,9.50
2011,04,23,09,42,9.60
2011,04,23,09,43,9.60
2011,04,23,09,44,9.60
2011,04,23,09,45,9.60
2011,04,23,09,46,9.70
2011,04,23,09,47,9.70
2011,04,23,09,48,9.80
2011,04,23,09,49,9.80
2011,04,23,09,50,9.80
2011,04,23,09,51,9.90
2011,04,23,09,52,9.90
2011,04,23,09,53,9.90
2011,04,23,09,54,10.00
2011,04,23,09,55,10.00
2011,04,23,09,56,10.10
2011,04,23,09,57,10.10
2011,04,23,09,58,10.10
2011,04,23,09,59,10.10
2011,04,23,10,00,10.10
2011,04,23,10,01,10.10
2011,04,23,10,02,10.20
2011,04,23,10,03,10.20
2011,04,23,10,04,10.20
2011,04,23,10,05,10.10
2011,04,23,10,06,10.10
2011,04,23,10,07,10.10
2011,04,23,10,08,10.10
2011,04,23,10,09,10.10
2011,04,23,10,10,10.10
2011,04,23,10,11,10.10
2011,04,23,10,12,10.10
2011,04,23,10,13,10.10
2011,04,23,10,14,10.10
2011,04,23,10,15,10.20
2011,04,23,10,16,10.10
2011,04,23,10,17,10.10
2011,04,23,10,18,10.10
2011,04,23,10,19,10.10
2011,04,23,10,20,10.10
2011,04,23,10,21,10.00
2011,04,23,10,22,10.00
2011,04,23,10,23,10.00
2011,04,23,10,24,10.10
2011,04,23,10,25,10.10
2011,04,23,10,26,10.20
2011,04,23,10,27,10.20
2011,04,23,10,28,10.20
2011,04,23,10,29,10.30
2011,04,23,10,30,10.30
2011,04,23,10,31,10.30
2011,04,23,10,32,10.40
2011,04,23,10,33,10.40
2011,04,23,10,34,10.50
2011,04,23,10,35,10.50
2011,04,23,10,36,10.50
2011,04,23,10,37,10.60
2011,04,23,10,38,10.60
2011,04,23,10,39,10.60
2011,04,23,10,40,10.70
2011,04,23,10,41,10.70
2011,04,23,10,42,10.70
2011,04,23,10,43,10.70
2011,04,23,10,44,10.80
2011,04,23,10,45,10.80
2011,04,23,10,46,10.80
2011,04,23,10,47,10.80
2011,04,23,10,48,10.80
2011,04,23,10,49,10.80
2011,04,23,10,50,10.90
2011,04,23,10,51,10.90
2011,04,23,10,52,10.90
2011,04,23,10,53,10.90
2011,04,23,10,54,11.00
2011,04,23,10,55,11.00
2011,04,23,10,56,11.10
2011,04,23,10,57,11.00
2011,04,23,10,58,11.00
2011,04,23,10,59,11.00
2011,04,23,11,00,11.00
2011,04,23,11,01,11.00
2011,04,23,11,02,11.00
2011,04,23,11,03,11.00
2011,04,23,11,04,11.00
2011,04,23,11,05,11.00
2011,04,23,11,06,11.00
2011,04,23,11,07,11.00
2011,04,23,11,08,11.00
2011,04,23,11,09,11.00
2011,04,23,11,10,11.00
2011,04,23,11,11,11.00
2011,04,23,11,12,11.00
2011,04,23,11,13,11.10
2011,04,23,11,14,11.10
2011,04,23,11,15,11.10
2011,04,23,11,16,11.10
2011,04,23,11,17,11.10
2011,04,23,11,18,11.20
2011,04,23,11,19,11.20
2011,04,23,11,20,11.20
2011,04,23,11,21,11.30
2011,04,23,11,22,11.30
2011,04,23,11,23,11.30
2011,04,23,11,24,11.40
2011,04,23,11,25,11.40
2011,04,23,11,26,11.40
2011,04,23,11,27,11.40
2011,04,23,11,28,11.40
2011,04,23,11,29,11.50
2011,04,23,11,30,11.50
2011,04,23,11,31,11.50
2011,04,23,11,32,11.60
2011,04,23,11,33,11.60
2011,04,23,11,34,11.60
2011,04,23,11,35,11.70
2011,04,23,11,36,11.70
2011,04,23,11,37,11.70
2011,04,23,11,38,11.70
2011,04,23,11,39,11.70
2011,04,23,11,40,11.70
2011,04,23,11,41,11.70
2011,04,23,11,42,11.70
2011,04,23,11,43,11.80
2011,04,23,11,44,11.80
2011,04,23,11,45,11.80
2011,04,23,11,46,11.90
2011,04,23,11,47,11.90
2011,04,23,11,48,11.90
2011,04,23,11,49,11.90
2011,04,23,11,50,11.90
2011,04,23,11,51,12.00
2011,04,23,11,52,12.00
2011,04,23,11,53,12.10
2011,04,23,11,54,12.10
2011,04,23,11,55,12.20
2011,04,23,11,56,12.20
2011,04,23,11,57,12.20
2011,04,23,11,58,12.20
2011,04,23,11,59,12.20
2011,04,23,12,00,12.30
2011,04,23,12,01,12.30
2011,04,23,12,02,12.30
2011,04,23,12,03,12.30
2011,04,23,12,04,12.30
2011,04,23,12,05,12.30
2011,04,23,12,06,12.20
2011,04,23,12,07,12.20
2011,04,23,12,08,12.30
2011,04,23,12,09,12.30
2011,04,23,12,10,12.30
2011,04,23,12,11,12.40
2011,04,23,12,12,12.40
2011,04,23,12,13,12.40
2011,04,23,12,14,12.40
2011,04,23,12,15,12.50
2011,04,23,12,16,12.50
2011,04,23,12,17,12.60
2011,04,23,12,18,12.60
2011,04,23,12,19,12.60
2011,04,23,12,20,12.60
2011,04,23,12,21,12.50
2011,04,23,12,22,12.50
2011,04,23,12,23,12.50
2011,04,23,12,24,12.50
2011,04,23,12,25,12.50
2011,04,23,12,26,12.50
2011,04,23,12,27,12.50
2011,04,23,12,28,12.50
2011,04,23,12,29,12.50
2011,04,23,12,30,12.50
2011,04,23,12,31,12.40
2011,04,23,12,32,12.40
2011,04,23,12,33,12.40
2011,04,23,12,34,12.40
2011,04,23,12,35,12.40
2011,04,23,12,36,12.40
2011,04,23,12,37,12.30
2011,04,23,12,38,12.30
2011,04,23,12,39,12.30
2011,04,23,12,40,12.30
2011,04,23,12,41,12.20
2011,04,23,12,42,12.20
2011,04,23,12,43,12.20
2011,04,23,12,44,12.20
2011,04,23,12,45,12.20
2011,04,23,12,46,12.20
2011,04,23,12,47,12.20
2011,04,23,12,48,12.20
2011,04,23,12,49,12.20
2011,04,23,12,50,12.20
2011,04,23,12,51,12.20
2011,04,23,12,52,12.20
2011,04,23,12,53,12.20
2011,04,23,12,54,12.30
2011,04,23,12,55,12.30
2011,04,23,12,56,12.40
2011,04,23,12,57,12.40
2011,04,23,12,58,12.50
2011,04,23,12,59,12.50
2011,04,23,13,00,12.50
2011,04,23,13,01,12.50
2011,04,23,13,02,12.50
2011,04,23,13,03,12.50
2011,04,23,13,04,12.50
2011,04,23,13,05,12.50
2011,04,23,13,06,12.50
2011,04,23,13,07,12.50
2011,04,23,13,08,12.60
2011,04,23,13,09,12.60
2011,04,23,13,10,12.60
2011,04,23,13,11,12.60
2011,04,23,13,12,12.60
2011,04,23,13,13,12.60
2011,04,23,13,14,12.70
2011,04,23,13,15,12.70
2011,04,23,13,16,12.70
2011,04,23,13,17,12.70
2011,04,23,13,18,12.70
2011,04,23,13,19,12.80
2011,04,23,13,20,12.80
2011,04,23,13,21,12.80
2011,04,23,13,22,12.80
2011,04,23,13,23,12.80
2011,04,23,13,24,12.80
2011,04,23,13,25,12.80
2011,04,23,13,26,12.80
2011,04,23,13,27,12.80
2011,04,23,13,28,12.80
2011,04,23,13,29,12.80
2011,04,23,13,30,12.80
2011,04,23,13,31,12.90
2011,04,23,13,32,12.90
2011,04,23,13,33,12.90
2011,04,23,13,34,13.00
2011,04,23,13,35,13.00
2011,04,23,13,36,13.00
2011,04,23,13,37,13.10
2011,04,23,13,38,13.10
2011,04,23,13,39,13.10
2011,04,23,13,40,13.20
2011,04,23,13,41,13.20
2011,04,23,13,42,13.20
2011,04,23,13,43,13.20
2011,04,23,13,44,13.20
2011,04,23,13,45,13.20
2011,04,23,13,46,13.20
2011,04,23,13,47,13.20
2011,04,23,13,48,13.30
2011,04,23,13,49,13.30
2011,04,23,13,50,13.30
2011,04,23,13,51,13.30
2011,04,23,13,52,13.30
2011,04,23,13,53,13.30
2011,04,23,13,54,13.30
2011,04,23,13,55,13.30
2011,04,23,13,56,13.30
2011,04,23,13,57,13.30
2011,04,23,13,58,13.40
2011,04,23,13,59,13.40
2011,04,23,14,00,13.50
2011,04,23,14,01,13.50
2011,04,23,14,02,13.60
2011,04,23,14,03,13.60
2011,04,23,14,04,13.70
2011,04,23,14,05,13.70
2011,04,23,14,06,13.70
2011,04,23,14,07,13.70
2011,04,23,14,08,13.70
2011,04,23,14,09,13.70
2011,04,23,14,10,13.80
2011,04,23,14,11,13.90
2011,04,23,14,12,14.00
2011,04,23,14,13,14.10
2011,04,23,14,14,14.20
2011,04,23,14,15,14.10
2011,04,23,14,16,14.10
2011,04,23,14,17,14.00
2011,04,23,14,18,14.00
2011,04,23,14,19,14.00
2011,04,23,14,20,14.00
2011,04,23,14,21,14.00
2011,04,23,14,22,14.00
2011,04,23,14,23,14.00
2011,04,23,14,24,13.90
2011,04,23,14,25,14.00
2011,04,23,14,26,14.00
2011,04,23,14,27,14.00
2011,04,23,14,28,14.10
2011,04,23,14,29,14.10
2011,04,23,14,30,14.10
2011,04,23,14,31,14.10
2011,04,23,14,32,14.20
2011,04,23,14,33,14.20
2011,04,23,14,34,14.30
2011,04,23,14,35,14.30
2011,04,23,14,36,14.30
2011,04,23,14,37,14.30
2011,04,23,14,38,14.30
2011,04,23,14,39,14.30
2011,04,23,14,40,14.30
2011,04,23,14,41,14.30
2011,04,23,14,42,14.30
2011,04,23,14,43,14.30
2011,04,23,14,44,14.30
2011,04,23,14,45,14.30
2011,04,23,14,46,14.30
2011,04,23,14,47,14.30
2011,04,23,14,48,14.30
2011,04,23,14,49,14.30
2011,04,23,14,50,14.30
2011,04,23,14,51,14.30
2011,04,23,14,52,14.30
2011,04,23,14,53,14.30
2011,04,23,14,54,14.30
2011,04,23,14,55,14.20
2011,04,23,14,56,14.20
2011,04,23,14,57,14.20
2011,04,23,14,58,14.30
2011,04,23,14,59,14.30
2011,04,23,15,00,14.30
2011,04,23,15,01,14.30
2011,04,23,15,02,14.30
2011,04,23,15,03,14.20
2011,04,23,15,04,14.20
2011,04,23,15,05,14.20
2011,04,23,15,06,14.10
2011,04,23,15,07,14.10
2011,04,23,15,08,14.10
2011,04,23,15,09,14.10
2011,04,23,15,10,14.10
2011,04,23,15,11,14.10
2011,04,23,15,12,14.10
2011,04,23,15,13,14.20
2011,04,23,15,14,14.20
2011,04,23,15,15,14.20
2011,04,23,15,16,14.10
2011,04,23,15,17,14.10
2011,04,23,15,18,14.10
2011,04,23,15,19,14.10
2011,04,23,15,20,14.10
2011,04,23,15,21,14.20
2011,04,23,15,22,14.20
2011,04,23,15,23,14.20
2011,04,23,15,24,14.20
2011,04,23,15,25,14.20
2011,04,23,15,26,14.20
2011,04,23,15,27,14.20
2011,04,23,15,28,14.20
2011,04,23,15,29,14.20
2011,04,23,15,30,14.30
2011,04,23,15,31,14.30
2011,04,23,15,32,14.30
2011,04,23,15,33,14.30
2011,04,23,15,34,14.30
2011,04,23,15,35,14.30
2011,04,23,15,36,14.30
2011,04,23,15,37,14.40
2011,04,23,15,38,14.40
2011,04,23,15,39,14.30
2011,04,23,15,40,14.30
2011,04,23,15,41,14.30
2011,04,23,15,42,14.30
2011,04,23,15,43,14.30
2011,04,23,15,44,14.30
2011,04,23,15,45,14.30
2011,04,23,15,46,14.40
2011,04,23,15,47,14.40
2011,04,23,15,48,14.40
2011,04,23,15,49,14.50
2011,04,23,15,50,14.50
2011,04,23,15,51,14.50
2011,04,23,15,52,14.50
2011,04,23,15,53,14.50
2011,04,23,15,54,14.60
2011,04,23,15,55,14.60
2011,04,23,15,56,14.60
2011,04,23,15,57,14.60
2011,04,23,15,58,14.70
2011,04,23,15,59,14.70
2011,04,23,16,00,14.70
2011,04,23,16,01,14.70
2011,04,23,16,02,14.70
2011,04,23,16,03,14.70
2011,04,23,16,04,14.60
2011,04,23,16,05,14.60
2011,04,23,16,06,14.60
2011,04,23,16,07,14.60
2011,04,23,16,08,14.60
2011,04,23,16,09,14.60
2011,04,23,16,10,14.60
2011,04,23,16,11,14.60
2011,04,23,16,12,14.60
2011,04,23,16,13,14.60
2011,04,23,16,14,14.60
2011,04,23,16,15,14.60
2011,04,23,16,16,14.60
2011,04,23,16,17,14.60
2011,04,23,16,18,14.60
2011,04,23,16,19,14.60
2011,04,23,16,20,14.60
2011,04,23,16,21,14.60
2011,04,23,16,22,14.60
2011,04,23,16,23,14.70
2011,04,23,16,24,14.70
2011,04,23,16,25,14.70
2011,04,23,16,26,14.70
2011,04,23,16,27,14.70
2011,04,23,16,28,14.70
2011,04,23,16,29,14.70
2011,04,23,16,30,14.70
2011,04,23,16,31,14.80
2011,04,23,16,32,14.80
2011,04,23,16,33,14.70
2011,04,23,16,34,14.70
2011,04,23,16,35,14.70
2011,04,23,16,36,14.70
2011,04,23,16,37,14.70
2011,04,23,16,38,14.70
2011,04,23,16,39,14.70
2011,04,23,16,40,14.80
2011,04,23,16,41,14.80
2011,04,23,16,42,14.80
2011,04,23,16,43,14.80
2011,04,23,16,44,14.80
2011,04,23,16,45,14.80
2011,04,23,16,46,14.80
2011,04,23,16,47,14.70
2011,04,23,16,48,14.70
2011,04,23,16,49,14.70
2011,04,23,16,50,14.70
2011,04,23,16,51,14.70
2011,04,23,16,52,14.60
2011,04,23,16,53,14.60
2011,04,23,16,54,14.60
2011,04,23,16,55,14.60
2011,04,23,16,56,14.60
2011,04,23,16,57,14.60
2011,04,23,16,58,14.60
2011,04,23,16,59,14.60
2011,04,23,17,00,14.70
2011,04,23,17,01,14.70
2011,04,23,17,02,14.60
2011,04,23,17,03,14.60
2011,04,23,17,04,14.60
2011,04,23,17,05,14.60
2011,04,23,17,06,14.60
2011,04,23,17,07,14.60
2011,04,23,17,08,14.60
2011,04,23,17,09,14.60
2011,04,23,17,10,14.60
2011,04,23,17,11,14.50
2011,04,23,17,12,14.50
2011,04,23,17,13,14.50
2011,04,23,17,14,14.60
2011,04,23,17,15,14.60
2011,04,23,17,16,14.50
2011,04,23,17,17,14.60
2011,04,23,17,18,14.60
2011,04,23,17,19,14.60
2011,04,23,17,20,14.60
2011,04,23,17,21,14.60
2011,04,23,17,22,14.60
2011,04,23,17,23,14.70
2011,04,23,17,24,14.70
2011,04,23,17,25,14.70
2011,04,23,17,26,14.70
2011,04,23,17,27,14.70
2011,04,23,17,28,14.80
2011,04,23,17,29,14.70
2011,04,23,17,30,14.70
2011,04,23,17,31,14.70
2011,04,23,17,32,14.70
2011,04,23,17,33,14.70
2011,04,23,17,34,14.70
2011,04,23,17,35,14.70
2011,04,23,17,36,14.70
2011,04,23,17,37,14.70
2011,04,23,17,38,14.70
2011,04,23,17,39,14.70
2011,04,23,17,40,14.70
2011,04,23,17,41,14.70
2011,04,23,17,42,14.70
2011,04,23,17,43,14.70
2011,04,23,17,44,14.70
2011,04,23,17,45,14.60